Weather History for Ashtabula, OH

Change the Weather History Date:

Friday, July 12, 2013

  Actual Average (KYNG) Record (KYNG)
Temperature  
Mean Temperature 66 °F 71 °F  
Max Temperature 80 °F 82 °F 99 °F (1936)
Min Temperature 55 °F 60 °F 44 °F (1978)
Degree Days  
Heating Degree Days 0 0  
Month to date heating degree days 8  
Since 1 June heating degree days 77  
Since 1 July heating degree days 8  
Cooling Degree Days 2 6  
Month to date cooling degree days 72  
Year to date cooling degree days 221  
Since 1 June cooling degree days 182  
Growing Degree Days 16 (Base 50)    
Moisture  
Dew Point 59 °F    
Average Humidity 74    
Maximum Humidity 93    
Minimum Humidity 56    
Precipitation  
Precipitation 0.01 in 0.15 in 1.68 in (1992)
Month to date precipitation 1.66  
Year to date precipitation 20.33  
Snow  
Snow 0.00 in 0.00 in - ()
Month to date snowfall 0.0  
Since 1 June snowfall 0.0  
Since 1 July snowfall 0.0  
Snow Depth -    
Sea Level Pressure  
Sea Level Pressure 30.10 in    
Wind  
Wind Speed 3 mph (NE)    
Max Wind Speed 10 mph    
Max Gust Speed 20 mph    
Visibility 10 miles    
Events      
T = Trace of Precipitation, MM = Missing Value Source: NWS Daily Summary

Daily Weather History Graph

Daily Weather History Graph

Search for Another Location

Airport:

Trip Planner

Search our weather history database for the weather conditions in past years. The results will help you decide how hot, cold, wet, or windy it might be!

Date:

Astronomy

Jul. 12, 2013 Rise Set
Actual Time 5:59 AM EDT 8:57 PM EDT
Civil Twilight 5:25 AM EDT 9:30 PM EDT
Nautical Twilight 4:43 AM EDT 10:13 PM EDT
Astronomical Twilight 3:53 AM EDT 11:02 PM EDT
Moon 10:18 AM EDT (7/12) 11:02 PM EDT (7/12)
Length of Visible Light 16h 05m
Length of Day
14h 58m
Waxing Crescent, 17% of the Moon is Illuminated
Jul 12
Waxing Crescent
Jul 15
First Quarter
Jul 22
Full
Jul 29
Last Quarter
Aug 6
New

Hourly Weather History & Observations

Time (EDT) Temp. Dew Point Humidity Pressure Visibility Wind Dir Wind Speed Gust Speed Precip Events Conditions
12:53 AM 59.0 °F 55.9 °F 90% 30.05 in 10.0 mi Calm Calm - N/A   Clear
1:53 AM 60.1 °F 55.9 °F 86% 30.04 in 10.0 mi Calm Calm - N/A   Clear
2:53 AM 57.9 °F 55.0 °F 90% 30.06 in 10.0 mi Calm Calm - N/A   Clear
3:53 AM 57.0 °F 54.0 °F 89% 30.07 in 10.0 mi Calm Calm - N/A   Clear
4:53 AM 57.0 °F 54.0 °F 89% 30.07 in 10.0 mi Calm Calm - N/A   Clear
5:53 AM 55.9 °F 54.0 °F 93% 30.08 in 10.0 mi Calm Calm - N/A   Clear
6:53 AM 59.0 °F 55.9 °F 90% 30.09 in 10.0 mi Calm Calm - 0.01 in   Clear
7:53 AM 63.0 °F 60.1 °F 90% 30.11 in 10.0 mi Calm Calm - N/A   Mostly Cloudy
8:53 AM 68.0 °F 63.0 °F 84% 30.12 in 10.0 mi NE 3.5 mph - N/A   Overcast
9:53 AM 70.0 °F 61.0 °F 73% 30.14 in 10.0 mi Variable 5.8 mph - N/A   Overcast
10:53 AM 73.0 °F 60.1 °F 64% 30.13 in 10.0 mi East 5.8 mph - N/A   Overcast
11:53 AM 77.0 °F 60.1 °F 56% 30.12 in 10.0 mi Variable 4.6 mph - N/A   Scattered Clouds
12:53 PM 73.0 °F 62.1 °F 68% 30.12 in 10.0 mi North 8.1 mph - N/A   Mostly Cloudy
1:53 PM 73.0 °F 62.1 °F 68% 30.12 in 10.0 mi North 10.4 mph - N/A   Mostly Cloudy
2:53 PM 75.9 °F 61.0 °F 60% 30.11 in 10.0 mi NE 8.1 mph 19.6 mph N/A   Partly Cloudy
3:53 PM 78.1 °F 62.1 °F 58% 30.10 in 10.0 mi NE 9.2 mph - N/A   Scattered Clouds
4:53 PM 78.1 °F 61.0 °F 56% 30.09 in 10.0 mi NE 6.9 mph - N/A   Clear
5:53 PM 78.1 °F 61.0 °F 56% 30.09 in 10.0 mi Variable 6.9 mph - N/A   Scattered Clouds
6:53 PM 77.0 °F 62.1 °F 60% 30.09 in 10.0 mi Variable 5.8 mph - N/A   Clear
7:53 PM 75.9 °F 62.1 °F 62% 30.10 in 10.0 mi NNE 3.5 mph - N/A   Scattered Clouds
8:53 PM 71.1 °F 62.1 °F 73% 30.12 in 10.0 mi ENE 4.6 mph - N/A   Partly Cloudy
9:53 PM 69.1 °F 57.9 °F 68% 30.13 in 10.0 mi ENE 5.8 mph - N/A   Clear
10:53 PM 66.9 °F 57.9 °F 73% 30.14 in 10.0 mi East 5.8 mph - N/A   Clear
11:53 PM 64.0 °F 57.9 °F 80% 30.15 in 10.0 mi Calm Calm - N/A   Clear